Theta_e
299 302 303 304 306 306 304 301 301 301 299 298 298 298 298 299 300 299 299 301 306 312 314 315 316 316 316 319 320 320 322 323 325 326 327 328 329 331 331 331 332 332 331 332 332 330 332 332 332 332 332 331 330 330 331 331 330 329 328 326 326 326 326 326 326 327 325 323 324 324 325 325 323 322 323 322 322 322 322 322 321 320 320 320 320
295 298 300 301 301 300 300 299 299 298 298 298 297 297 297 298 298 298 299 299 300 303 303 302 304 309 314 313 312 314 318 321 322 322 323 324 324 325 326 327 330 332 332 332 332 332 332 333 333 332 331 331 331 332 332 329 329 328 327 326 327 326 326 327 327 325 322 321 320 321 323 323 322 322 322 322 323 322 322 321 320 320 320 321 321
291 294 298 299 298 298 297 297 297 299 298 297 297 297 297 297 298 298 298 299 300 300 300 300 301 301 305 305 309 310 306 307 309 307 311 313 311 312 313 318 322 324 325 327 330 332 333 333 333 334 333 332 331 331 331 331 331 330 328 327 326 327 327 327 326 327 324 322 321 319 318 318 318 320 321 322 322 321 321 321 321 320 321 321 321
290 292 293 294 296 295 295 296 296 297 297 297 297 297 297 297 297 297 297 298 299 300 301 299 300 299 300 301 302 304 301 299 299 301 302 304 305 306 306 309 314 316 320 322 324 326 328 330 331 332 332 332 332 332 332 331 329 327 327 326 328 325 324 325 327 327 327 324 318 316 315 314 314 312 311 313 319 322 321 322 321 321 322 322 320
290 290 291 292 293 293 294 294 295 296 296 296 296 297 297 296 296 297 297 297 298 300 299 298 298 297 297 298 298 298 296 297 297 297 298 300 301 301 303 305 308 309 311 315 318 321 323 326 327 328 329 331 332 331 331 331 331 331 330 329 328 328 327 326 323 326 326 328 323 314 314 312 311 313 308 314 313 316 317 320 319 320 321 321 321
291 291 291 291 291 291 292 292 293 294 294 296 296 296 296 296 296 296 297 297 297 298 299 299 298 297 296 295 295 294 294 294 294 295 296 297 297 299 299 301 303 304 306 308 311 314 317 321 323 324 325 327 328 330 331 331 331 331 331 329 327 327 327 326 324 323 326 326 326 326 323 318 317 313 312 311 308 315 316 317 319 320 320 320 321
289 289 290 290 290 290 291 292 292 292 293 295 295 295 296 296 296 296 296 296 297 298 299 299 297 297 296 295 294 294 294 294 294 295 296 297 297 297 298 298 299 301 301 303 306 308 311 313 315 319 322 324 324 327 327 329 331 331 331 331 331 328 328 326 326 326 323 325 326 326 324 324 322 316 315 314 314 309 312 316 318 319 320 320 321
289 289 289 290 290 291 291 292 292 292 293 293 294 294 294 295 295 296 296 296 296 297 298 299 297 297 297 296 296 294 294 293 293 294 295 296 296 297 297 297 298 299 299 300 301 303 305 306 308 310 313 316 319 323 324 326 326 328 329 329 330 329 328 326 326 327 324 322 324 324 324 324 323 323 322 320 317 314 315 309 310 313 316 318 319
290 289 289 289 290 290 291 291 292 292 292 293 293 293 293 294 294 294 295 296 296 297 297 297 298 297 297 296 296 296 296 295 295 294 294 295 295 296 297 297 298 298 298 299 299 300 301 302 304 305 307 309 311 314 318 320 322 323 323 325 327 328 327 327 326 327 327 327 324 323 324 323 323 323 322 319 317 314 313 313 312 307 307 311 314
289 290 289 290 290 290 291 291 291 291 292 293 293 293 293 293 293 293 293 294 295 296 296 296 297 297 297 296 296 296 296 296 296 296 296 295 295 295 296 297 297 298 298 298 298 299 299 300 301 302 304 306 307 308 311 313 315 317 319 321 322 323 326 327 325 325 324 325 325 325 322 321 320 321 321 321 320 319 314 315 317 316 315 314 312
288 288 288 288 289 290 290 290 290 290 290 291 292 292 292 291 291 291 292 293 293 294 295 295 295 296 296 296 296 296 296 296 295 295 295 296 295 295 296 296 297 297 297 298 298 298 298 299 299 299 301 303 304 305 307 308 310 312 315 317 318 319 320 322 322 325 326 325 324 322 321 320 320 319 318 319 318 315 314 313 313 312 310 310 308
287 287 287 287 288 288 289 289 289 289 290 290 290 291 291 291 291 290 291 292 292 293 293 293 294 294 295 295 294 295 295 295 294 294 294 294 295 295 296 296 296 296 297 297 297 297 298 298 298 298 299 300 301 303 304 306 307 308 310 312 314 315 317 317 319 321 323 324 324 324 324 323 322 322 322 321 317 318 317 315 314 315 316 313 310
286 286 286 287 287 287 287 288 288 288 289 289 290 290 290 290 290 290 289 290 291 292 292 292 292 292 293 293 294 294 294 294 293 293 294 294 295 295 295 295 295 295 296 296 297 297 298 297 298 297 298 298 299 300 301 303 305 306 307 308 310 311 313 317 317 318 320 320 321 323 323 322 321 322 322 320 319 319 318 315 315 315 313 314 313
286 286 286 286 286 287 287 287 288 288 288 289 289 289 289 289 289 289 289 289 290 290 291 291 291 291 292 292 292 293 292 292 292 292 293 293 294 294 294 294 294 294 294 295 296 297 297 298 298 298 298 298 299 299 300 301 302 303 304 305 306 308 310 311 313 315 317 318 321 320 320 321 321 320 320 319 318 317 315 314 314 314 314 313 314
285 285 286 286 286 286 287 287 287 287 288 288 288 288 289 288 288 288 288 288 289 289 289 289 290 290 291 292 292 292 291 291 291 292 291 291 292 292 292 292 292 293 293 294 295 296 297 297 298 298 298 298 298 299 299 300 301 302 302 303 304 305 307 308 309 310 313 314 316 318 319 320 321 321 319 319 317 317 316 315 314 310 310 311 311
283 284 284 284 285 285 286 286 286 287 287 287 287 288 288 288 288 288 288 288 288 289 288 289 289 289 290 290 291 291 291 291 290 290 290 291 290 290 290 290 291 292 293 293 293 294 295 295 296 296 297 298 298 298 298 299 299 299 300 302 302 305 305 305 306 308 309 310 311 313 315 315 317 319 320 320 318 318 317 316 316 314 310 308 310
283 283 283 284 284 284 285 286 286 286 286 286 287 287 287 287 287 287 287 287 287 288 288 288 288 288 288 289 289 289 289 289 289 289 289 289 289 289 289 289 290 290 291 292 291 292 292 293 294 295 295 296 296 297 298 298 298 298 299 300 301 303 304 304 306 306 307 308 309 310 311 313 314 315 317 319 320 320 319 318 318 317 315 311 308
282 282 282 283 283 284 284 285 286 286 286 286 286 286 286 286 286 286 286 285 286 286 287 287 287 287 287 287 287 288 288 288 288 288 288 287 287 287 288 288 288 289 289 290 290 290 291 291 292 293 294 295 296 296 296 296 296 297 298 298 300 301 302 304 305 307 307 308 308 308 309 310 311 312 314 316 316 318 318 319 318 318 317 312 310
281 281 281 281 282 283 283 284 285 286 286 286 286 286 285 285 285 285 285 285 285 286 286 286 287 286 286 286 286 286 287 287 287 287 287 286 286 286 286 287 287 287 287 287 288 288 289 290 291 292 293 294 295 295 296 296 296 296 296 296 298 298 299 300 302 304 306 307 308 308 308 309 310 311 312 313 314 314 316 317 317 317 315 315 313
281 281 281 281 281 282 283 283 284 284 285 285 285 285 284 284 284 284 284 284 284 284 285 284 285 285 285 285 285 285 285 285 285 285 285 284 285 285 285 285 285 286 286 287 287 287 288 288 289 290 290 291 292 294 295 295 296 296 296 296 296 297 297 297 298 300 302 303 304 306 307 308 310 310 311 311 312 312 313 315 317 317 316 316 315
281 281 280 281 281 281 282 282 283 283 284 284 284 284 284 284 283 283 282 282 282 283 283 283 283 283 283 283 283 283 283 284 283 284 283 283 283 284 284 284 285 284 285 285 286 286 287 288 288 288 288 289 290 291 293 295 295 294 295 296 297 297 296 296 297 298 299 300 301 302 304 307 310 311 312 313 313 313 312 313 313 314 314 315 315
280 280 280 280 280 280 280 281 282 283 283 283 283 283 282 282 282 282 282 282 282 282 282 282 282 282 281 281 281 282 282 282 282 282 282 282 282 282 283 283 283 284 284 284 284 285 286 287 287 287 287 288 289 290 292 293 293 293 294 295 296 296 296 297 297 297 297 298 299 299 301 303 305 307 309 311 312 312 312 311 311 311 312 313 314
280 279 279 279 279 280 281 282 282 282 283 282 282 282 282 282 281 281 281 280 281 281 281 281 281 280 280 280 280 280 281 280 280 280 280 281 281 281 282 281 282 282 283 283 284 284 285 286 285 286 286 287 288 290 292 292 293 293 293 294 294 294 294 294 295 295 296 297 297 298 298 300 302 303 304 307 309 311 312 312 312 312 311 311 312
278 278 278 278 278 279 281 281 281 282 282 282 282 282 282 281 281 281 280 280 280 280 280 280 280 279 279 279 279 279 279 279 279 279 279 280 280 280 281 281 281 282 282 283 283 284 284 284 284 284 285 286 287 289 290 292 293 292 291 291 291 292 292 293 293 294 294 295 295 295 296 298 299 299 301 303 305 307 308 309 309 310 312 312 313
276 277 277 277 278 280 281 281 281 282 281 282 282 281 281 281 281 280 280 279 279 279 279 278 278 277 277 278 278 278 278 278 278 278 278 279 279 279 280 280 280 280 281 281 282 284 284 284 284 284 284 285 286 287 288 290 289 289 289 289 290 290 290 291 292 293 294 294 294 294 295 296 297 297 299 300 302 303 304 306 307 309 309 310 311
276 276 276 277 278 280 280 280 281 281 281 281 281 281 281 281 280 280 279 279 278 278 278 277 277 277 276 276 276 276 276 276 277 277 277 278 278 278 279 279 280 279 280 281 281 282 283 283 284 284 285 285 286 287 288 287 287 288 289 289 289 289 289 289 290 291 292 293 293 294 294 295 295 296 297 298 300 300 302 303 304 306 307 308 309
276 276 277 277 277 278 280 280 280 280 281 281 281 281 281 280 280 279 279 278 278 277 277 277 276 276 276 276 276 276 276 276 276 276 276 277 277 278 278 278 279 279 279 280 281 282 283 283 283 284 284 285 286 287 287 286 287 288 288 289 289 289 289 289 289 290 291 292 293 294 295 295 295 296 296 296 296 297 298 299 301 302 304 305 305
276 276 277 277 277 277 278 279 279 279 280 280 280 281 281 281 280 279 279 278 278 277 276 276 276 275 275 275 275 275 275 275 276 276 276 276 276 276 277 278 278 278 279 279 280 281 282 282 283 283 284 285 285 286 286 286 287 287 288 288 288 288 288 288 289 290 291 291 292 293 294 295 295 294 294 294 295 295 296 296 298 299 300 300 301
276 277 277 278 277 277 277 278 278 278 279 280 280 279 279 279 279 279 278 278 277 276 276 275 275 274 274 274 275 274 274 275 275 275 275 275 276 276 276 277 277 278 279 279 280 280 281 281 282 283 283 284 285 285 285 286 287 287 288 288 288 288 288 288 288 289 290 291 291 292 293 293 293 291 290 291 292 292 295 295 297 298 298 298 299
277 278 278 279 278 278 277 277 278 279 279 279 280 280 280 280 279 278 278 277 276 275 275 275 274 274 274 273 274 274 273 274 274 274 274 275 275 275 276 276 276 276 277 278 279 279 280 280 280 281 282 283 284 285 285 287 288 288 288 288 288 288 288 288 288 288 289 290 291 291 292 290 289 290 290 291 292 293 292 294 295 296 296 297 298
278 278 278 278 278 278 277 277 277 278 280 280 280 279 279 279 278 279 278 277 276 275 274 274 274 273 273 273 273 273 273 273 273 273 273 274 274 275 275 275 276 276 276 277 278 278 278 279 279 280 280 282 283 284 286 288 288 289 288 288 287 287 287 287 287 288 287 288 289 290 291 290 291 290 292 291 292 292 292 293 293 293 293 295 295
277 277 278 278 277 277 277 277 277 276 279 280 280 280 280 280 279 279 278 277 275 274 274 273 273 273 273 272 272 272 272 273 273 273 273 273 273 273 274 274 274 275 276 276 276 277 277 278 279 279 279 280 282 284 286 287 288 288 289 288 287 287 287 286 286 287 287 287 288 289 290 291 292 292 292 293 292 292 292 292 292 293 293 293 294
275 275 276 276 276 276 277 277 277 277 277 280 281 281 280 279 278 277 277 276 274 274 273 272 272 272 272 272 272 272 272 272 272 272 273 273 273 273 273 273 274 274 275 275 276 276 276 277 278 278 278 279 280 283 286 287 287 288 288 288 287 286 286 286 286 286 286 287 287 288 289 290 291 289 290 292 292 293 292 292 292 292 293 294 295
274 275 275 276 276 277 277 277 277 277 278 280 282 281 279 279 278 278 276 275 274 273 272 272 271 271 271 271 271 271 271 271 272 272 272 272 272 272 273 273 274 274 274 274 274 275 275 276 277 277 278 279 279 283 285 286 287 288 288 287 286 286 286 286 286 286 286 286 287 287 288 288 289 290 290 290 290 291 291 292 293 294 295 294 294
273 274 275 276 276 277 277 277 278 277 278 279 280 280 279 279 279 277 275 274 273 272 271 271 270 270 270 270 271 271 271 271 271 271 271 271 272 272 272 272 273 273 273 273 273 273 274 275 276 277 277 278 279 283 284 285 286 287 287 286 285 286 285 285 285 285 286 286 287 288 288 287 287 287 288 288 288 289 290 290 290 291 292 294 295
272 273 273 273 273 273 275 276 278 278 278 280 280 280 280 279 278 276 274 272 271 270 270 270 269 269 270 270 270 270 270 270 270 270 270 270 271 271 271 272 272 272 273 273 273 273 273 274 275 276 276 277 278 282 283 284 285 286 286 284 284 283 283 284 284 285 286 286 287 287 286 285 285 286 287 288 288 288 288 288 288 289 290 292 294
271 271 270 271 271 270 270 272 273 273 275 278 280 279 278 276 274 273 272 271 270 270 269 269 269 269 269 270 270 270 270 270 270 270 270 270 270 270 270 271 271 271 271 271 271 272 273 274 274 275 275 276 277 279 282 284 284 284 284 283 283 282 283 283 284 285 285 286 286 285 285 285 285 285 286 288 289 288 287 286 286 287 288 289 291
269 269 269 268 268 268 268 268 269 270 271 275 278 277 275 273 271 271 270 269 268 268 268 268 268 268 268 269 269 269 269 269 269 269 269 269 270 270 270 271 270 270 270 271 271 272 273 273 274 274 275 275 276 278 282 283 283 283 283 281 282 282 282 283 283 284 284 284 284 285 284 284 284 284 287 288 288 287 285 285 285 285 285 286 288
268 268 267 266 266 266 266 266 266 266 268 271 273 272 271 269 268 267 266 265 265 265 265 266 267 268 267 268 268 268 268 268 268 268 268 268 269 269 269 270 270 270 270 271 271 271 272 273 273 274 276 276 276 278 281 281 282 282 282 281 281 281 281 281 281 282 282 283 283 283 283 284 284 285 286 287 287 286 285 285 285 285 284 284 287
267 267 267 266 266 265 264 263 263 263 266 268 269 268 267 265 264 264 263 262 262 263 264 265 266 266 266 266 267 266 267 267 267 267 268 268 269 269 269 269 269 270 270 270 271 271 271 272 273 274 275 275 276 277 278 280 281 281 282 281 281 280 279 279 280 280 280 281 281 281 282 283 285 285 286 286 287 287 286 286 286 285 284 284 287
267 266 267 265 264 263 262 262 262 263 264 265 266 265 263 263 262 261 260 261 261 262 263 264 264 264 265 265 265 265 266 266 266 266 267 266 267 267 268 267 267 269 270 270 271 271 271 271 272 273 274 275 276 276 276 279 280 281 282 281 279 279 279 279 279 279 279 279 280 280 280 282 284 285 285 286 286 287 287 286 286 285 286 286 287
266 267 266 265 263 262 261 261 261 261 262 263 263 262 261 260 260 259 259 260 261 261 262 263 263 263 263 264 264 264 265 266 265 265 265 265 266 266 266 266 266 267 269 269 270 271 271 271 272 273 274 274 275 276 275 278 280 280 280 280 279 278 279 279 278 278 278 278 279 279 279 281 283 284 285 286 286 287 287 286 286 287 288 288 287
263 264 265 265 263 262 261 260 260 260 260 261 261 260 259 259 258 258 259 259 260 260 261 261 262 262 262 262 263 263 264 265 264 264 264 264 264 263 263 264 266 267 267 268 269 270 271 271 272 273 274 274 274 275 277 277 278 279 279 279 280 279 280 279 277 276 277 277 278 278 279 281 282 283 284 285 286 287 286 286 287 288 288 288 287
263 263 263 264 263 262 261 260 260 259 259 259 259 258 258 257 257 258 258 259 259 259 260 260 260 260 260 260 261 262 263 263 262 263 263 262 262 262 262 262 264 265 266 267 268 270 270 271 271 272 273 273 274 276 276 277 276 277 278 279 279 280 280 278 277 277 277 277 277 278 279 282 283 283 284 285 285 285 285 287 288 288 287 286 286
261 261 262 262 262 262 261 260 260 259 258 258 258 256 256 255 257 257 257 257 257 258 258 258 258 259 258 259 259 260 261 261 261 262 261 261 260 261 261 261 262 264 266 266 267 268 268 269 270 270 271 273 274 275 275 275 275 275 277 278 278 279 279 278 276 276 277 277 279 281 281 282 282 283 284 284 285 285 286 287 287 287 285 285 285
259 260 260 260 261 261 260 260 259 259 258 258 257 256 255 256 257 257 257 256 256 257 257 258 258 258 258 258 258 259 259 259 260 260 260 260 258 258 258 260 260 262 265 266 266 268 268 269 269 270 271 272 274 273 273 273 274 275 276 277 277 277 276 277 277 276 278 279 280 280 281 282 282 282 283 283 284 285 286 286 285 284 284 284 285
257 258 259 258 258 258 258 258 258 258 258 257 256 256 256 256 256 257 257 256 256 256 256 257 257 258 258 259 258 259 259 259 259 260 259 259 260 259 259 258 258 258 263 265 266 267 267 268 269 270 271 272 272 271 271 272 273 274 274 275 275 275 275 276 276 276 277 277 279 279 280 282 282 283 283 284 285 285 285 285 286 286 286 286 287
256 257 258 257 257 256 256 256 256 257 257 257 256 256 256 256 256 256 256 256 256 256 255 255 256 257 257 259 258 259 259 258 258 259 258 259 259 259 259 260 260 261 263 265 266 267 268 268 269 270 271 270 269 270 270 270 272 273 274 274 274 274 274 274 275 276 277 278 278 279 279 281 282 283 283 284 284 285 285 285 285 286 286 286 286
254 255 256 256 256 255 255 255 255 256 256 256 255 255 255 255 255 255 255 254 255 255 255 256 256 256 257 258 258 258 258 258 258 258 259 259 259 259 263 265 267 267 266 266 267 268 269 270 271 271 269 268 268 268 269 273 274 275 273 273 273 273 274 274 276 278 277 277 277 277 279 280 280 279 280 280 281 282 283 284 284 285 285 285 285
254 254 254 255 255 254 253 253 254 254 255 255 254 254 254 255 254 255 255 253 254 254 255 255 256 256 257 258 257 257 257 257 257 257 258 258 262 264 266 266 266 268 268 271 272 270 271 272 271 270 270 268 267 269 274 275 274 274 275 275 275 276 277 276 277 278 277 275 275 276 275 275 275 275 275 276 277 278 278 279 281 283 284 285 285
252 251 251 252 253 253 252 252 253 253 253 254 254 254 253 254 254 254 254 253 254 254 254 254 255 255 257 257 257 256 256 255 256 257 257 257 258 260 266 268 268 266 267 270 272 272 272 272 270 268 269 272 272 273 273 273 273 274 274 275 275 276 276 276 277 275 273 272 272 271 271 272 272 273 273 273 274 275 275 277 278 280 281 283 284
Wind_Speed
6 6 5 5 5 5 3 3 3 2 4 8 8 6 4 3 4 6 2 3 5 6 5 4 3 5 3 3 3 2 3 1 2 2 2 2 2 4 6 6 7 7 6 7 9 8 7 7 7 7 7 7 7 7 8 8 9 8 8 7 9 8 6 6 8 7 5 5 5 9 10 8 10 9 9 9 9 8 6 7 7 6 7 7 7
4 5 3 4 5 5 5 4 4 6 4 7 10 7 6 5 6 4 3 5 6 5 5 4 1 0 4 4 4 3 2 4 4 4 4 5 6 6 3 1 1 3 5 9 9 8 7 8 8 7 6 7 8 8 7 7 7 6 4 5 5 8 5 3 3 2 4 5 4 7 8 5 8 8 7 8 9 6 7 6 7 7 8 8 6
5 4 3 4 4 5 6 4 2 0 2 7 10 10 8 7 6 5 5 7 6 4 4 5 2 2 3 3 4 4 4 4 6 5 6 7 8 7 6 7 6 4 2 1 1 3 5 7 7 7 7 7 6 5 5 6 6 6 5 5 4 4 6 5 6 8 7 3 4 5 7 5 1 2 4 6 7 6 5 6 7 8 9 8 7
6 5 4 2 3 4 4 5 4 4 2 5 7 10 8 7 6 6 6 5 5 5 5 4 4 4 5 5 5 5 4 3 6 7 7 8 8 7 8 8 8 7 7 6 4 3 3 2 2 3 6 7 6 6 7 7 5 4 5 7 6 4 3 4 8 8 8 4 4 5 3 0 9 2 2 4 7 9 8 9 7 7 8 8 5
5 2 1 2 3 3 4 5 5 6 3 2 6 8 7 9 7 7 6 6 5 5 5 4 5 5 5 6 5 4 5 6 6 6 6 4 4 8 7 6 6 7 7 8 7 5 4 3 3 3 3 3 3 5 5 5 6 5 6 6 8 7 7 4 3 7 8 5 4 3 4 2 4 3 3 6 3 3 5 7 7 7 7 7 5
6 6 5 3 3 2 3 3 6 6 6 2 2 7 9 9 9 7 6 6 5 5 5 5 5 6 5 5 5 5 5 5 5 3 5 5 4 2 4 6 6 6 6 6 6 6 6 5 4 4 3 3 3 4 4 4 6 7 7 5 5 5 5 3 3 4 8 8 8 7 5 6 8 4 3 8 1 5 4 6 6 7 7 7 6
2 3 4 5 3 4 3 4 3 6 5 4 4 5 7 8 8 9 8 6 5 5 4 6 7 7 7 7 5 5 6 2 0 1 2 2 2 4 4 5 5 6 6 6 6 6 6 6 5 4 3 3 3 3 5 5 5 4 4 6 7 7 7 9 11 8 4 6 8 10 10 9 6 4 5 4 12 2 4 5 5 6 7 7 8
8 7 6 6 6 6 6 4 4 5 4 4 5 5 7 7 8 9 8 8 6 5 6 5 9 8 9 8 6 6 5 3 2 2 2 2 5 5 4 5 5 5 6 6 6 6 5 6 5 5 5 4 4 4 3 4 4 5 5 6 5 3 5 8 7 5 5 2 5 7 7 7 5 7 7 9 8 12 10 3 4 7 5 6 5
9 9 10 10 11 8 6 6 4 5 4 6 5 6 7 7 8 8 8 9 8 9 8 7 7 8 8 8 8 5 5 4 3 3 4 3 6 5 6 5 5 5 5 5 6 6 5 5 5 6 6 5 4 4 4 4 4 5 5 4 5 5 5 5 5 6 6 9 5 5 6 7 6 5 6 4 8 10 15 9 6 1 1 6 6
6 9 9 8 7 8 6 6 5 4 4 5 6 6 7 7 9 10 8 7 8 10 10 9 7 6 8 8 9 6 5 5 4 5 5 4 6 5 4 5 5 6 5 5 6 6 5 5 6 6 5 5 4 4 3 4 4 4 4 4 4 5 5 6 7 6 5 5 5 6 6 4 4 4 5 7 8 9 13 13 9 8 11 5 5
7 5 5 6 4 6 7 9 7 5 4 5 6 7 7 8 9 12 8 8 9 10 11 10 8 7 7 8 9 8 6 5 5 6 5 6 6 5 5 5 5 5 5 5 6 6 6 5 5 5 4 5 5 5 4 4 3 3 4 4 4 4 4 5 6 5 6 6 6 4 4 5 6 6 4 4 5 3 6 11 12 11 8 9 4
8 7 7 8 8 6 6 9 9 7 6 7 6 7 8 8 10 12 9 9 8 8 10 10 9 9 9 8 9 7 7 7 7 6 5 6 5 5 4 5 5 5 5 6 7 7 6 6 5 5 5 5 6 4 5 4 4 4 4 3 3 4 4 4 4 6 6 6 5 3 5 5 5 5 5 4 5 7 8 11 10 12 11 5 2
7 8 9 9 11 11 9 8 8 8 8 8 8 8 8 8 10 13 10 8 9 9 10 10 10 9 8 8 8 7 7 7 7 6 5 5 5 5 5 6 5 6 7 7 7 7 6 7 7 7 6 6 5 5 5 4 4 4 4 4 4 4 3 4 5 6 7 7 6 7 7 7 6 4 3 3 4 4 6 9 6 5 11 11 6
8 9 9 10 10 9 9 10 8 8 8 9 8 8 7 8 9 13 10 7 8 9 10 10 10 8 8 8 7 6 7 6 6 6 5 4 4 5 5 5 5 5 5 6 6 6 5 5 5 5 5 5 6 6 6 5 5 5 4 4 4 4 4 4 4 4 4 5 5 6 6 7 7 5 4 3 5 6 8 8 9 8 8 12 9
8 10 10 10 9 9 10 9 9 8 9 8 8 8 9 9 9 12 11 8 9 9 9 10 8 8 7 7 7 6 6 6 6 5 5 5 5 5 5 5 5 5 5 5 6 6 6 6 5 6 6 6 6 6 6 6 6 6 4 4 4 4 4 4 4 4 4 4 5 5 5 5 5 4 4 5 4 6 7 7 7 12 12 10 11
6 7 7 6 7 7 6 6 7 8 8 8 8 8 9 9 10 10 11 9 9 9 9 9 8 7 7 8 7 7 6 6 6 5 6 6 5 5 5 5 5 5 5 6 6 6 6 6 6 6 6 7 7 6 6 6 7 6 6 6 5 4 4 4 4 4 5 5 5 5 5 6 5 6 6 7 6 6 6 5 6 8 11 16 10
7 8 8 8 6 6 7 8 7 7 8 8 7 7 10 10 11 11 10 9 9 8 9 8 8 8 8 7 7 7 7 7 6 7 6 6 6 5 5 5 5 5 5 5 6 6 6 6 6 7 6 6 7 7 7 7 6 5 6 6 7 7 6 5 5 5 5 5 5 5 5 5 5 5 5 6 7 6 6 6 7 10 10 14 12
5 5 5 6 7 8 7 6 7 8 9 8 8 6 7 8 10 12 10 11 8 8 8 7 8 8 7 8 7 7 7 7 7 6 5 5 6 5 5 5 6 5 5 4 5 6 6 6 6 5 5 5 6 6 7 7 7 6 6 6 6 6 6 6 6 6 6 5 5 5 5 5 5 5 6 5 5 6 7 7 7 7 6 10 9
9 9 8 7 7 6 6 7 6 7 7 8 8 8 8 8 7 9 11 9 8 7 7 7 7 6 6 7 7 7 6 6 6 6 5 6 6 6 6 5 5 5 5 5 6 6 6 6 6 6 6 6 6 6 7 6 6 6 6 7 7 7 7 7 6 7 6 6 6 6 5 5 5 5 6 6 6 5 6 6 7 7 8 10 10
9 9 9 9 8 7 7 8 8 8 8 7 8 8 9 8 10 9 8 8 8 8 7 8 6 7 7 7 7 6 6 7 6 6 6 7 6 6 6 6 6 5 5 5 5 5 6 6 6 6 6 7 7 6 6 6 6 6 6 6 6 7 7 7 7 7 6 7 7 7 6 6 6 5 5 5 5 5 6 7 7 7 8 7 8
10 10 10 10 9 7 6 5 6 5 5 6 7 9 8 7 8 8 11 9 9 7 8 6 7 7 8 8 7 7 7 6 8 7 8 7 6 6 6 5 4 6 5 5 6 6 6 6 5 6 7 7 7 7 6 6 6 7 6 6 6 7 6 6 6 8 7 8 8 8 8 7 7 8 7 6 6 6 6 6 6 7 9 9 10
11 10 10 10 8 8 6 6 5 7 7 8 6 7 7 7 7 8 8 8 8 7 7 7 6 6 8 7 7 6 6 6 7 7 8 7 6 6 6 5 6 6 6 6 6 5 5 6 6 6 6 6 6 6 7 6 7 7 7 6 7 8 7 6 6 6 7 7 7 8 8 8 8 9 9 8 7 7 7 7 7 7 8 9 8
11 10 10 9 9 9 9 10 9 9 8 7 6 7 7 7 7 6 9 6 6 6 6 6 7 7 7 6 6 6 6 7 8 7 7 6 6 6 5 6 6 6 6 6 6 6 6 6 6 6 6 6 7 6 6 7 7 8 8 7 7 8 8 8 8 8 8 8 8 7 8 8 8 9 9 8 8 8 7 8 9 7 8 9 10
7 8 7 8 8 7 8 8 9 8 8 7 6 6 6 6 6 7 9 7 6 6 6 7 7 7 6 6 7 5 7 7 8 6 7 6 5 5 5 5 5 5 6 6 6 6 6 6 6 6 7 6 7 6 6 6 8 8 8 8 7 7 7 8 8 8 9 8 8 9 9 9 9 9 9 9 8 8 8 8 9 9 8 9 8
7 9 9 8 8 9 9 9 9 8 7 7 7 6 7 7 6 7 7 5 6 5 6 6 7 8 6 7 6 5 6 7 7 5 6 5 5 5 5 5 5 6 5 5 6 5 5 6 7 8 7 7 7 7 6 7 8 8 7 7 7 7 7 8 8 8 8 8 8 9 10 9 9 9 9 9 9 10 9 9 9 9 9 9 8
10 9 9 10 9 8 8 7 7 7 8 8 7 7 6 6 6 6 8 6 5 5 5 6 5 8 6 7 5 5 6 5 5 5 5 5 5 5 5 5 5 5 5 5 5 5 5 6 6 6 6 7 6 6 6 9 8 8 8 7 7 7 7 7 7 7 7 7 8 9 8 9 9 9 9 9 9 10 10 10 10 9 9 9 10
10 9 9 7 7 9 9 8 8 7 6 7 8 7 7 7 6 4 5 6 5 6 5 7 6 7 6 5 5 5 5 5 4 4 4 4 5 5 5 5 4 4 5 5 5 5 5 5 5 6 6 7 7 7 7 8 8 8 8 8 8 8 8 7 6 7 8 8 8 8 8 7 8 9 10 11 11 12 11 11 11 11 11 10 10
6 7 8 9 8 7 7 7 7 6 5 5 5 6 7 8 8 6 5 6 5 6 6 6 6 5 5 4 4 3 4 4 4 4 4 4 4 4 5 4 4 5 6 6 5 5 5 4 5 4 5 6 6 6 7 8 9 8 8 8 8 8 9 8 7 7 8 8 8 8 8 9 9 8 9 10 10 10 10 11 9 9 10 10 10
8 7 7 7 8 7 6 4 4 4 5 5 5 5 4 4 5 5 5 6 5 7 6 6 5 6 4 3 3 3 3 3 4 4 5 5 5 4 4 4 4 5 4 4 4 4 4 5 4 5 5 4 5 5 6 9 9 9 9 8 8 8 9 8 8 8 7 7 8 8 8 8 10 12 13 12 11 11 8 10 11 10 10 10 10
8 8 6 5 4 3 2 3 5 6 6 6 5 5 5 6 5 4 5 4 5 5 6 5 5 5 4 3 3 3 3 3 3 4 4 4 4 5 5 6 6 5 5 5 5 4 4 5 4 4 4 4 4 4 8 13 11 8 8 7 7 8 8 8 9 9 8 8 8 8 8 11 13 13 13 12 12 13 14 11 10 10 11 11 11
4 4 4 4 5 4 3 2 2 3 6 6 5 4 4 4 4 4 4 4 5 6 5 5 5 3 3 3 3 3 3 5 3 4 3 3 4 3 4 5 5 5 6 6 5 6 6 6 5 5 5 4 4 4 11 12 12 13 9 8 8 8 7 7 7 8 9 10 9 9 9 10 10 10 10 14 14 15 14 15 16 15 13 12 12
9 9 9 8 7 6 4 2 2 2 1 2 5 5 5 5 4 4 4 4 5 5 5 5 3 3 3 4 4 4 5 5 4 5 4 3 3 4 5 4 4 5 5 4 5 5 5 5 5 5 4 5 4 8 12 13 13 14 11 8 7 6 7 7 7 8 8 8 9 9 8 7 7 9 10 11 12 14 14 16 16 16 16 17 16
10 11 10 9 9 8 7 3 1 2 2 2 0 2 4 3 3 3 4 4 4 5 5 4 3 3 3 3 3 4 4 4 4 4 4 4 6 6 7 7 6 5 3 5 5 5 5 4 4 5 4 4 4 9 12 14 14 14 15 11 6 7 7 8 7 7 7 7 7 8 8 8 7 12 10 10 10 11 13 15 15 16 15 15 15
10 10 9 9 8 8 8 6 5 2 2 4 4 3 2 3 4 4 4 3 4 4 4 4 3 2 2 2 3 4 5 4 3 3 3 4 6 6 5 4 4 5 5 5 5 6 6 5 5 5 4 3 3 8 13 14 13 14 15 12 6 7 6 7 6 7 7 7 7 7 8 8 8 9 8 10 10 10 11 12 11 11 11 12 14
11 12 11 11 10 8 7 6 5 2 2 1 3 3 5 5 6 6 5 5 4 4 4 3 3 2 2 1 2 2 4 4 3 2 3 4 4 3 4 4 4 5 5 6 6 7 6 6 6 6 5 5 4 11 13 14 14 15 16 12 6 6 6 6 6 6 7 7 7 7 8 8 9 9 8 11 11 12 12 11 11 11 12 11 11
10 10 11 12 12 10 9 8 7 6 1 2 2 3 5 5 5 7 6 6 6 5 4 4 4 3 2 1 0 2 3 3 4 3 4 4 3 4 4 3 3 3 3 3 3 3 5 6 6 6 6 6 5 12 13 13 14 15 16 8 7 8 7 7 7 7 7 7 6 7 7 9 9 9 11 16 15 13 12 13 13 12 12 11 11
10 10 10 10 10 11 11 9 8 8 8 6 3 5 6 7 8 6 7 6 6 6 5 4 4 3 3 2 1 0 2 3 4 4 4 3 3 3 3 3 3 3 3 3 3 3 4 5 6 6 6 7 5 10 13 12 13 15 12 7 8 7 8 8 8 8 8 8 8 8 8 9 9 9 13 20 20 17 11 12 14 14 12 11 12
11 10 9 10 10 10 11 10 9 10 10 7 4 7 8 8 8 7 7 7 7 7 6 5 4 4 3 2 2 1 0 2 3 4 4 3 3 2 3 3 3 3 3 3 3 3 3 4 5 5 6 6 6 9 11 11 13 14 13 8 8 8 9 8 8 8 8 9 10 14 12 10 10 11 17 21 21 16 12 12 13 14 16 13 12
14 14 13 13 13 12 12 13 14 15 14 11 8 9 10 10 9 8 8 8 8 7 6 5 4 3 3 3 2 2 2 2 3 4 4 4 3 4 3 3 3 2 3 3 3 3 3 3 4 4 7 6 6 7 9 10 12 12 10 7 7 8 9 9 10 10 9 8 9 9 13 13 12 14 21 20 22 17 13 12 12 15 16 15 12
13 13 11 10 11 12 15 16 15 14 13 13 10 11 12 10 9 8 9 8 7 7 6 6 5 5 4 4 3 3 2 2 4 3 4 4 3 3 4 4 4 4 4 3 3 3 3 3 3 4 4 5 5 4 5 10 9 10 11 7 6 7 8 10 10 10 12 11 10 10 11 14 18 19 20 21 20 22 15 13 12 13 16 17 12
13 13 11 10 11 12 13 13 11 12 12 11 10 10 11 9 8 9 9 7 7 7 7 6 5 5 4 4 4 3 3 4 4 3 3 3 4 4 4 4 4 4 4 4 4 4 4 4 3 3 4 3 4 4 5 10 9 9 11 10 6 7 7 8 9 10 9 10 11 11 10 13 20 21 21 22 22 22 21 15 12 12 13 16 18
13 14 13 10 10 11 12 12 12 12 12 11 10 12 10 10 10 11 9 9 8 8 7 6 5 4 4 4 4 4 3 4 3 3 4 5 4 4 3 3 3 3 4 4 5 5 5 4 4 4 3 3 4 6 5 8 10 11 12 13 7 7 8 9 10 9 9 9 9 10 10 16 23 23 24 24 25 23 24 15 15 20 25 26 17
15 15 14 11 9 9 10 10 8 9 9 9 9 11 9 8 10 9 7 6 5 4 4 3 3 3 4 4 4 6 5 5 5 5 5 5 4 3 3 3 4 3 4 4 4 5 5 5 5 3 3 4 4 4 8 7 11 13 13 12 13 10 14 9 9 10 10 11 10 11 12 17 23 26 25 26 25 26 21 15 24 24 25 24 19
13 13 13 12 11 10 9 10 9 8 8 7 7 7 6 7 8 6 5 5 5 5 4 4 4 5 6 6 6 6 7 6 6 5 4 5 5 4 3 3 3 3 3 4 4 5 5 5 6 6 5 5 5 5 7 10 10 14 14 14 14 15 15 10 10 9 10 11 11 11 13 24 26 26 26 25 25 24 17 23 24 25 23 20 12
15 15 15 13 12 12 10 10 10 11 10 10 10 10 10 11 9 8 8 7 7 7 7 7 7 7 7 6 6 6 6 6 5 5 5 5 4 4 4 3 4 4 4 4 4 5 5 6 6 7 7 6 6 6 6 9 13 13 15 15 16 17 15 15 11 9 9 10 15 22 24 23 24 26 27 25 19 18 19 19 20 21 19 11 10
14 15 16 14 12 11 11 11 11 11 10 10 10 10 11 9 8 8 8 8 7 7 8 8 8 7 8 7 7 6 6 6 6 5 4 4 3 4 3 3 4 3 4 4 5 5 5 6 6 7 7 8 8 7 8 8 9 11 12 16 18 16 15 16 15 12 16 20 20 22 25 24 21 18 14 12 11 13 18 20 20 18 11 9 9
15 14 14 12 12 10 11 11 11 11 10 10 10 10 9 8 8 8 8 8 7 7 7 8 9 8 9 7 8 7 7 6 6 5 4 4 3 3 3 3 3 3 3 3 4 5 5 6 6 7 8 8 8 8 8 8 9 10 11 12 12 12 15 15 10 10 12 11 15 16 15 19 17 21 20 17 15 14 12 11 9 9 8 9 9
13 13 13 10 10 10 10 10 9 10 10 10 9 10 10 9 8 8 8 8 8 8 7 7 7 7 7 7 7 9 8 6 6 6 5 5 4 4 4 4 3 3 2 2 3 4 4 6 6 7 6 5 6 7 8 9 9 10 10 11 11 11 11 11 12 11 12 13 13 14 15 10 8 8 9 8 9 10 10 10 9 9 9 10 11
12 12 12 10 10 9 9 8 8 9 8 8 8 8 9 10 9 9 9 9 8 8 7 8 7 6 6 7 6 6 6 6 6 5 4 3 4 4 4 4 4 0 1 2 3 3 5 5 6 5 6 6 6 6 7 12 13 17 15 13 11 10 11 10 13 20 16 13 11 10 9 10 10 11 11 11 11 11 12 12 13 11 10 10 9
9 8 9 9 8 7 8 8 8 8 7 7 7 8 8 8 8 8 9 9 9 7 7 7 7 7 6 7 6 6 5 5 5 6 6 5 6 7 5 4 3 8 11 9 7 4 5 6 6 5 6 7 7 9 16 20 20 21 21 21 20 20 19 16 19 23 14 10 9 9 9 10 10 10 10 11 12 12 13 14 13 13 11 10 10
9 9 8 8 5 5 5 6 7 7 7 6 6 7 8 8 9 9 9 9 9 6 6 5 6 6 8 7 6 5 5 5 5 5 6 6 6 5 10 10 10 10 9 10 9 10 13 13 9 7 8 13 15 16 18 20 21 21 21 21 20 19 19 19 19 13 8 7 8 8 8 8 8 9 9 10 10 11 12 13 14 13 13 12 12
Wind_Direction
245 225 223 206 195 201 190 151 142 123 125 115 101 83 65 65 95 83 63 90 110 124 112 116 141 156 96 121 147 114 124 122 140 204 179 237 249 203 190 190 198 197 199 214 211 207 205 209 207 204 201 201 203 208 205 209 210 208 213 207 217 221 214 211 226 218 257 278 251 257 258 231 234 233 231 234 239 238 240 240 244 247 247 248 245
267 251 201 162 156 146 141 153 160 156 182 139 121 115 104 87 81 79 37 71 66 84 102 98 86 348 119 127 109 66 59 72 55 46 34 43 32 9 339 33 254 229 195 206 211 209 196 207 204 205 201 208 214 214 217 221 217 221 220 226 210 218 237 184 219 169 255 254 291 293 269 238 231 232 237 242 246 242 237 239 247 245 254 252 255
260 260 201 182 155 148 146 140 150 358 199 127 121 116 112 104 100 94 57 52 53 63 87 103 69 39 81 126 103 99 58 56 75 49 39 53 43 33 14 16 32 35 14 350 215 217 212 203 202 204 202 201 207 213 216 219 214 218 198 208 212 210 221 205 175 177 244 229 257 281 283 302 288 264 231 242 245 250 244 246 244 246 251 255 255
259 232 217 181 168 153 136 129 122 107 117 115 118 117 113 109 114 110 96 89 90 84 93 88 87 72 48 73 49 77 88 58 64 49 37 36 34 23 23 14 16 21 19 26 27 23 7 345 307 240 222 202 211 218 206 212 212 212 218 219 215 229 188 210 186 199 216 230 274 219 255 107 304 266 314 274 215 223 220 234 236 244 246 255 249
237 198 189 162 160 165 158 142 127 124 123 137 132 127 121 118 116 110 105 97 94 99 103 117 109 84 86 72 75 65 32 32 34 25 27 33 37 27 13 4 6 19 21 23 24 21 14 9 6 357 356 315 245 230 229 219 215 211 207 212 205 215 246 242 219 198 211 215 237 299 307 293 232 277 322 264 218 222 239 230 236 234 242 243 243
209 201 184 176 155 103 97 119 129 125 126 133 134 124 123 122 117 109 98 90 84 83 101 102 87 104 92 88 78 68 55 33 51 38 8 22 16 334 12 22 22 21 23 23 25 20 23 18 21 20 8 1 360 325 283 244 221 219 210 227 235 218 225 259 253 214 206 197 210 219 234 277 302 273 355 298 347 226 214 215 218 227 230 238 233
156 145 145 139 161 138 135 136 134 126 128 131 118 111 107 110 114 111 102 89 79 75 94 105 88 79 88 94 99 104 112 81 60 357 36 5 18 34 22 23 28 34 27 27 22 19 21 20 21 22 15 15 5 358 349 341 315 277 249 237 241 230 209 234 237 239 211 226 216 225 228 232 243 270 269 308 299 272 232 241 235 229 225 222 227
182 178 172 161 159 165 154 147 131 126 121 113 108 104 102 104 105 101 101 96 79 72 62 76 106 107 103 96 86 84 92 119 120 101 45 43 53 34 32 27 20 30 32 31 29 27 21 17 15 21 26 19 11 15 353 331 331 324 311 289 263 244 245 236 230 217 215 228 206 242 240 250 255 242 242 257 273 300 287 243 224 239 219 237 238
181 174 177 174 166 165 155 140 135 121 119 115 110 104 100 95 91 89 89 92 87 78 73 56 77 100 106 110 97 90 103 102 99 77 63 62 67 31 35 26 31 31 33 32 28 25 24 20 14 18 21 13 12 9 357 346 338 330 337 336 319 288 252 248 254 249 233 245 235 235 231 236 241 232 253 227 260 275 282 279 271 299 239 243 238
195 184 174 166 159 147 140 125 111 113 111 111 105 102 96 98 91 85 76 80 90 88 83 68 59 77 90 95 103 105 104 109 98 69 53 42 57 42 35 33 24 30 28 31 31 22 21 19 20 17 8 1 6 1 358 357 350 343 336 329 320 319 312 288 263 251 236 236 230 256 247 241 236 256 235 246 250 242 267 288 293 281 277 248 219
187 174 159 143 133 134 137 130 126 111 106 104 101 97 96 91 91 81 71 68 72 82 84 82 74 64 76 84 92 93 88 91 83 65 57 46 47 34 34 32 31 31 25 30 30 18 18 20 21 13 5 4 1 2 351 340 332 331 327 328 335 331 317 314 315 304 277 259 251 233 251 254 252 248 247 239 244 272 289 285 294 286 280 301 243
174 158 149 143 131 132 135 132 134 130 116 106 101 99 96 94 94 89 76 75 73 77 82 83 82 75 72 70 73 77 86 82 75 74 66 69 54 43 31 36 30 24 28 27 24 15 15 13 12 14 16 6 2 345 337 334 326 328 326 331 326 323 321 322 319 310 311 309 301 270 260 268 281 264 269 266 264 278 277 278 281 299 295 265 258
168 164 154 157 156 155 149 143 136 134 130 124 114 108 102 99 99 97 86 79 79 78 79 80 79 77 79 79 75 66 68 79 81 75 58 68 65 59 45 42 24 27 19 19 15 11 12 11 11 10 5 3 352 353 341 337 337 333 325 323 321 320 316 315 309 311 315 309 314 315 306 298 279 276 280 277 292 301 300 303 289 298 296 302 291
171 165 165 161 160 155 151 146 142 135 130 126 121 112 108 103 100 97 94 84 84 80 81 81 74 74 75 80 80 79 75 68 65 71 62 56 58 58 56 46 41 36 19 18 1 359 11 14 6 8 8 0 0 355 350 345 344 339 329 325 313 301 306 299 290 292 295 296 301 295 292 296 299 289 273 279 293 298 293 292 303 291 289 293 295
168 166 169 164 159 156 152 148 141 136 131 123 119 114 111 108 107 105 102 91 88 87 85 83 79 76 74 74 77 78 78 76 68 55 56 59 51 58 50 36 37 29 22 12 0 3 4 8 9 12 6 4 2 2 357 354 352 346 343 324 315 303 301 297 286 282 282 283 284 285 292 285 291 284 289 286 264 260 264 278 290 302 299 288 292
156 154 151 149 146 140 133 130 131 130 126 120 120 123 116 114 106 101 103 102 95 95 89 89 88 84 77 78 76 77 81 81 76 67 62 59 59 62 58 45 33 24 17 11 8 7 7 6 8 12 7 3 3 3 2 1 354 354 346 344 333 322 316 308 292 289 282 278 275 281 283 279 284 287 287 281 265 253 253 256 260 269 288 294 291
155 156 153 147 139 135 138 137 134 128 126 128 128 127 122 119 112 105 102 98 97 96 98 95 96 90 80 79 79 78 75 74 75 69 67 63 61 56 60 54 44 36 23 14 11 12 13 9 10 7 7 2 2 4 3 1 359 358 356 350 346 336 330 318 308 299 286 281 279 272 267 274 273 277 274 269 270 262 256 256 255 266 269 271 283
135 125 133 141 142 140 135 134 138 138 135 129 124 121 113 112 114 111 107 102 98 98 96 97 97 89 87 81 77 77 80 80 76 76 70 69 57 54 54 51 43 35 28 20 15 15 13 15 15 6 3 8 14 8 4 358 360 3 357 357 348 341 339 333 328 318 307 295 283 281 274 274 271 267 265 264 262 266 270 269 261 253 248 261 282
149 151 148 144 143 140 139 139 135 129 126 124 117 111 104 98 95 100 104 102 104 100 97 89 88 91 86 81 80 77 76 79 77 78 76 68 58 50 47 46 42 34 29 19 22 17 14 9 9 6 9 10 12 14 10 7 4 3 2 356 351 353 350 342 337 335 326 320 309 299 289 279 276 269 268 267 264 260 255 257 260 260 257 260 268
157 153 152 148 146 148 145 140 134 130 123 118 113 106 102 105 102 100 96 97 93 91 94 89 86 92 90 85 73 72 70 70 68 69 65 60 54 48 44 41 34 31 30 22 28 24 16 14 9 11 11 9 8 3 7 13 12 13 4 357 354 356 352 347 338 338 335 332 326 318 309 299 291 282 277 273 273 267 267 264 263 262 265 260 261
159 155 153 149 146 144 139 130 121 109 107 112 112 112 114 108 104 107 108 102 95 96 91 91 93 86 86 79 75 71 67 67 67 61 62 54 48 43 40 32 28 36 22 21 26 22 17 14 14 17 16 10 7 3 1 13 16 13 9 1 357 357 353 346 342 341 343 341 336 328 323 316 309 299 289 282 275 271 264 262 259 265 265 265 269
156 157 151 147 143 137 124 116 119 120 122 116 115 112 110 107 112 110 100 101 109 102 102 105 92 90 87 85 81 77 75 73 72 61 60 52 44 38 32 22 35 26 22 19 20 15 16 15 21 16 15 8 5 3 9 15 15 13 11 5 358 356 352 351 353 348 348 345 338 332 328 324 322 314 311 302 291 282 274 268 266 263 265 267 260
160 153 151 148 146 144 143 142 140 133 129 124 122 119 119 117 111 106 106 105 107 109 104 101 95 90 86 86 85 79 79 74 72 64 61 55 48 41 30 33 28 21 18 21 12 14 13 17 21 19 10 10 4 4 7 15 16 11 6 5 2 357 352 349 348 345 343 339 340 339 334 332 330 323 317 310 308 300 292 284 280 274 276 274 267
146 145 143 147 143 140 136 134 130 131 135 134 128 121 117 114 113 112 110 116 107 107 104 98 97 90 89 86 79 79 75 71 69 62 62 53 50 43 36 39 34 21 23 15 15 11 14 15 20 15 14 5 5 2 4 9 16 12 8 1 359 356 352 347 343 340 338 341 342 338 338 337 331 325 321 317 312 306 302 299 294 290 285 285 279
151 151 148 140 139 144 148 148 147 145 136 135 134 132 127 122 121 117 117 117 117 117 111 105 103 98 84 83 78 73 79 74 75 70 67 60 52 49 38 38 33 31 24 18 16 14 18 19 16 10 4 6 2 359 355 16 19 9 1 357 356 357 351 345 340 338 339 338 337 337 333 335 330 325 322 320 319 314 309 306 301 300 298 295 293
156 150 146 150 154 152 149 151 147 148 147 143 138 134 128 123 121 127 126 122 122 120 118 113 111 99 90 85 84 79 74 74 75 72 68 61 58 48 47 42 36 32 28 25 20 16 20 19 11 8 6 6 3 356 13 20 6 360 359 356 353 350 349 342 336 332 332 332 331 330 330 329 330 327 323 322 323 321 318 311 305 303 299 297 298
160 156 153 146 148 160 162 159 157 152 150 149 143 138 134 129 128 126 125 123 126 114 101 93 83 86 87 79 82 82 86 84 77 73 66 64 58 51 46 40 31 36 35 24 17 18 14 22 7 10 11 9 9 13 22 10 2 357 357 351 348 347 343 342 336 331 331 334 331 327 324 324 326 331 328 327 325 320 317 312 312 311 307 305 301
144 148 156 161 163 158 158 159 152 149 138 133 134 139 144 142 137 135 128 120 116 107 101 99 98 91 90 89 77 76 76 79 83 79 74 69 62 57 51 44 40 38 32 24 13 12 6 14 8 15 8 11 12 17 15 5 358 355 353 349 346 344 338 335 334 332 335 332 329 329 327 327 328 325 319 315 313 312 309 305 303 302 299 297 294
153 154 156 158 160 162 155 146 142 133 134 136 135 129 121 112 115 126 123 118 124 115 113 118 116 112 115 118 114 96 86 84 73 67 60 51 50 51 49 47 46 41 32 22 15 8 15 15 13 12 9 7 19 16 13 359 354 353 352 346 345 340 336 334 334 333 327 330 333 329 324 322 314 304 295 290 291 295 301 305 305 305 302 298 294
154 152 150 147 138 108 110 140 152 158 150 149 147 147 147 140 135 129 119 110 106 101 108 105 102 108 114 114 113 104 98 93 76 69 65 58 53 47 41 38 33 27 21 15 15 12 20 16 12 12 11 11 14 14 352 355 355 351 347 346 343 340 338 337 333 331 332 333 330 328 322 314 310 305 299 297 303 307 304 299 299 304 302 299 295
80 71 63 53 51 58 87 126 197 182 171 164 154 146 134 125 134 132 124 113 104 106 93 98 102 90 86 85 86 82 86 73 69 74 70 67 60 60 60 54 41 29 18 11 5 9 12 1 5 1 3 7 4 350 352 356 355 353 350 345 342 341 339 336 333 335 334 330 328 327 322 318 313 313 317 318 311 306 304 303 303 299 292 290 295
27 34 36 36 38 36 41 32 18 350 320 184 158 156 153 162 147 140 122 110 104 105 107 101 99 89 73 71 67 60 58 49 46 45 45 50 57 58 54 49 44 33 24 14 12 11 359 352 353 353 354 349 347 339 352 353 354 353 351 347 341 339 337 336 336 332 326 324 321 321 321 319 318 319 318 315 309 304 304 303 302 300 298 292 281
24 24 25 23 19 11 6 12 85 151 181 281 52 147 179 136 128 111 105 105 103 101 101 99 87 82 79 80 78 75 69 56 42 36 32 34 38 39 34 27 25 11 9 16 8 2 356 349 346 348 348 338 341 331 348 350 349 350 350 351 345 340 335 332 323 317 315 317 315 315 316 320 321 319 315 312 310 311 309 305 301 299 295 289 289
18 17 13 10 9 1 357 349 328 303 223 198 167 175 119 103 105 100 105 97 102 91 92 98 88 76 68 83 96 99 94 80 60 50 42 45 48 43 30 16 4 5 11 6 1 357 348 347 343 339 332 331 329 330 346 346 346 346 349 350 338 332 323 317 315 313 314 309 310 312 314 315 316 318 313 312 313 310 309 310 311 308 300 295 291
10 6 5 7 1 352 352 349 358 351 282 174 151 147 123 118 128 117 106 102 81 84 71 62 72 61 51 48 79 99 106 102 93 79 61 57 54 47 40 15 20 7 3 357 353 347 339 334 332 329 328 334 331 338 345 344 345 346 346 348 335 331 324 316 313 309 304 304 306 310 310 309 312 313 312 313 314 313 312 309 304 302 300 299 293
20 14 15 16 11 4 1 356 351 359 41 147 173 136 129 124 109 113 104 94 89 81 63 51 48 36 26 6 64 125 117 111 105 95 79 64 52 44 42 13 28 3 355 346 343 328 324 322 320 322 324 327 330 339 340 342 345 347 346 344 343 335 329 320 313 308 305 303 304 307 311 308 308 309 309 313 314 316 315 312 308 302 300 297 290
31 30 31 27 18 8 3 8 9 14 2 9 95 107 107 101 87 78 82 78 76 70 54 43 35 21 6 355 333 317 122 117 111 99 83 69 58 36 36 9 31 1 0 352 329 323 312 314 314 316 317 315 328 328 334 341 347 347 348 345 339 333 325 320 316 315 315 315 315 316 313 310 308 308 309 317 320 323 316 312 310 306 302 298 295
28 30 41 39 31 19 11 13 13 17 13 4 69 98 93 77 73 66 68 65 59 52 38 30 24 10 350 341 344 339 34 93 95 86 76 62 54 45 37 9 22 350 352 335 314 315 310 302 308 311 308 310 320 317 329 343 346 347 348 342 333 329 322 319 320 323 323 317 314 314 314 312 311 307 314 319 321 323 314 310 311 310 307 302 295
23 22 22 22 24 26 18 19 21 23 4 2 38 64 70 67 55 54 53 52 39 26 17 9 0 360 343 335 353 356 12 39 72 69 68 56 34 25 5 7 1 342 331 313 315 310 302 300 288 289 297 301 301 306 332 339 342 343 344 337 332 323 325 329 328 323 320 315 313 311 309 309 310 314 318 320 319 319 311 307 308 307 305 298 293
23 24 30 32 31 32 31 26 22 12 359 11 26 56 60 59 54 48 48 36 19 4 351 347 350 351 349 348 4 5 8 34 56 62 60 45 25 29 12 8 357 349 333 332 325 308 307 300 294 292 293 291 293 306 329 333 337 336 338 337 326 333 329 325 324 322 319 318 315 311 310 312 316 317 318 317 316 313 310 304 303 301 300 295 297
22 21 19 33 36 41 40 32 21 13 12 13 31 50 54 49 47 49 38 17 357 347 344 344 342 346 346 349 357 4 12 36 37 42 60 53 36 32 9 8 353 347 343 334 329 325 319 312 302 292 291 297 299 315 320 332 332 334 338 344 338 334 325 321 318 314 312 309 311 313 310 311 314 315 317 315 313 310 307 301 294 287 282 286 294
18 19 22 26 35 42 43 39 26 18 17 21 38 51 46 43 42 35 14 356 352 345 338 333 334 336 341 343 360 360 6 30 16 25 50 50 41 38 13 6 357 355 350 336 330 324 322 321 313 309 304 312 315 318 314 326 335 342 345 342 337 326 325 321 315 307 305 301 300 302 304 309 313 313 313 312 311 310 308 303 288 287 290 292 291
9 11 15 19 29 35 42 44 41 36 31 25 49 67 63 55 47 25 2 349 335 324 315 310 317 336 350 351 355 6 12 21 12 13 37 43 31 29 14 21 15 14 4 351 343 332 330 329 330 337 336 317 315 305 329 333 341 342 337 336 334 331 329 325 313 307 305 301 299 297 295 301 308 309 310 310 309 309 307 293 294 295 294 291 290
10 10 7 11 22 28 31 33 37 41 46 46 60 75 73 70 51 20 4 351 339 334 332 342 356 360 2 355 0 4 15 16 13 11 28 40 27 23 20 20 18 14 15 5 355 347 341 341 338 336 334 330 329 331 335 342 339 336 331 330 330 330 329 322 315 303 301 298 298 299 302 306 307 306 306 307 307 305 296 297 298 295 291 288 286
5 6 5 9 13 16 19 28 31 30 33 33 36 46 42 38 17 7 2 4 352 351 352 360 3 1 2 359 359 6 13 12 5 12 26 31 25 24 24 7 30 18 24 13 356 355 348 339 338 333 332 333 333 335 337 337 333 328 329 330 331 329 327 326 318 302 295 295 297 300 302 303 303 302 303 302 298 292 291 291 291 290 290 289 284
4 6 6 5 5 9 13 17 24 28 29 33 33 38 40 25 9 4 2 3 3 5 2 1 359 359 358 356 2 5 12 5 3 9 22 24 33 22 30 12 35 22 25 13 359 353 345 338 334 331 331 329 333 337 335 332 331 330 329 330 331 330 328 324 315 303 302 304 305 306 304 302 300 297 294 295 297 296 296 293 291 288 283 278 274
2 360 3 3 5 6 9 10 14 17 23 26 29 32 30 18 12 5 0 360 8 18 10 5 0 354 352 356 6 5 3 358 357 2 9 18 16 27 28 26 36 38 21 1 356 348 340 332 330 326 324 328 332 332 330 328 332 331 332 332 332 331 328 325 322 316 314 307 307 306 301 300 290 286 283 281 285 292 297 297 298 291 282 278 281
358 353 358 3 7 6 7 8 11 10 16 21 23 23 17 13 9 5 2 3 17 18 14 4 358 357 344 354 359 360 0 354 351 357 356 2 7 10 17 3 2 349 4 337 329 320 320 326 314 303 314 328 329 328 328 324 327 330 330 330 329 328 327 328 324 319 316 313 310 307 303 295 295 304 309 317 315 310 304 304 303 302 297 290 285
353 350 351 0 4 4 3 8 11 9 12 21 21 20 12 12 8 3 5 5 10 12 15 11 4 358 344 357 355 354 350 352 342 350 346 346 346 349 352 346 351 344 294 282 289 310 318 292 285 316 340 330 327 327 318 322 324 328 328 327 327 325 323 320 318 318 318 314 310 306 314 328 336 332 332 328 326 323 320 316 311 307 305 302 297
350 346 341 350 360 2 358 4 6 5 4 18 19 21 10 9 6 2 8 4 1 2 17 13 9 358 348 356 352 349 345 351 343 343 345 344 356 357 358 359 348 8 354 337 331 314 317 340 350 355 347 330 324 315 319 327 327 327 326 324 322 322 322 321 321 324 323 311 312 321 330 332 331 333 328 327 327 328 324 322 318 314 308 302 300
347 343 338 338 344 5 355 359 358 359 356 8 16 19 12 7 9 3 8 2 356 357 4 10 7 358 356 350 343 339 343 348 335 340 339 345 342 359 10 16 18 1 349 350 356 355 356 354 349 338 332 326 319 323 329 328 327 327 326 326 325 326 327 327 329 331 333 325 321 326 325 327 325 324 322 321 323 322 321 319 317 316 312 307 304